Location: T�bingen+AIT
(48.5342°N, 9.0700°E)
Time: 15:09:28
(UTC+01:00)

Lacrosse 5 - Pass Details

Date: 14 September 2017
Orbit: 716 x 722 km, 57.0° (Epoch: 11 November)

Event Time Altitude Azimuth Distance (km) Brightness Sun altitude
Rises 23:00:22 0° 292° (WNW) 3,135 6.1 -30.2°
Reaches altitude 10° 23:04:27 10° 261° (W) 2,209 4.7 -30.7°
Enters shadow 23:05:59 11° 243° (WSW) 2,105 4.4 -30.8°
